This is the latest recevied weather packets stored in our database for station/object W2SBL-1. If no packets are shown the sender has not sent any weather packets the latest 10 day(s).
| Time | Temp. | Humidity | Pressure | Rain* | Wind** | Luminosity | Snow |
|---|---|---|---|---|---|---|---|
| 1788001971 | 21.11° C | 58% | 1021.6 hPa | - | - | - | - |
| 1788001071 | 21.11° C | 58% | 1021.5 hPa | - | - | - | - |
| 1788000171 | 21.11° C | 58% | 1021.3 hPa | - | - | - | - |
| 1787999271 | 21.11° C | 58% | 1021 hPa | - | - | - | - |
| 1787998371 | 21.11° C | 58% | 1028.8 hPa | - | - | - | - |
| 1787997471 | 21.11° C | 58% | 1020.7 hPa | - | - | - | - |
| 1787996571 | 21.11° C | 58% | 1020.5 hPa | - | - | - | - |
| 1787995671 | 21.67° C | 59% | 1020.3 hPa | - | - | - | - |
| 1787994771 | 21.67° C | 59% | 1020.2 hPa | - | - | - | - |
| 1787993871 | 21.67° C | 58% | 1020.1 hPa | - | - | - | - |
| 1787992971 | 21.67° C | 58% | 1020 hPa | - | - | - | - |
| 1787992077 | 21.67° C | 58% | 1019.7 hPa | - | - | - | - |
| 1787991170 | 22.22° C | 59% | 1019.7 hPa | - | - | - | - |
| 1787990270 | 22.22° C | 59% | 1019.5 hPa | - | - | - | - |
| 1787989370 | 22.22° C | 59% | 1019.2 hPa | - | - | - | - |
| 1787988470 | 22.22° C | 59% | 1019.3 hPa | - | - | - | - |
| 1787987570 | 16.67° C | 59% | 1010 hPa | - | - | - | - |
| 1787986670 | 22.78° C | 59% | 1019.4 hPa | - | - | - | - |
| 1787985770 | 22.78° C | 59% | 1019.2 hPa | - | - | - | - |
| 1787984870 | 23.33° C | 59% | 1019 hPa | - | - | - | - |
| 1787983970 | 23.89° C | 59% | 1019 hPa | - | - | - | - |
| 1787983070 | 23.89° C | 58% | 1018.8 hPa | - | - | - | - |
| 1787982170 | 24.44° C | 58% | 1018.7 hPa | - | - | - | - |
| 1787981269 | 24.44° C | 58% | 1018.7 hPa | - | - | - | - |
| 1787980369 | 24.44° C | 58% | 1018.5 hPa | - | - | - | - |
* Rain since midnight (hover to see other rain measurements)
** Current wind speed in m/s (hover to see current wind gust speed)